Wetterdaten: Donnerstag, 28.01.2016
Datum Zeit Temp. A. Mod.Schuppen Aussentemp2 Feuchte A. Luftdruck Regen Wind Richtung Richtung Sonnenschein Helligkeit Solar
28.01.2016 00:04 9,7 C 9,3 C 0,0 C 86 % 1010,8 hPa 0,0 l/m 10,3 km/h (2 Bft) S-SO22.5 165 0 min 0 lux 0 W/m
28.01.2016 00:09 9,7 C 9,3 C 3,5 C 86 % 1010,8 hPa 0,0 l/m 10,0 km/h (2 Bft) SO 140 0 min 200 klux 0 W/m
28.01.2016 00:14 9,7 C 9,4 C 0,0 C 86 % 1010,8 hPa 0,4 l/m 10,3 km/h (2 Bft) S-SO22.5 165 0 min 0 lux 0 W/m
28.01.2016 00:19 9,8 C 9,4 C 0,0 C 86 % 1010,8 hPa 0,0 l/m 10,3 km/h (2 Bft) S-SO22.5 165 0 min 0 lux 0 W/m
28.01.2016 00:24 9,8 C 9,4 C 0,0 C 86 % 1010,8 hPa 0,0 l/m 10,3 km/h (2 Bft) S-SO22.5 165 0 min 0 lux 0 W/m
28.01.2016 00:29 9,8 C 9,4 C 0,0 C 86 % 1010,8 hPa 0,0 l/m 10,3 km/h (2 Bft) S-SO22.5 165 0 min 0 lux 0 W/m
28.01.2016 00:34 9,8 C 9,4 C 0,0 C 86 % 1011,8 hPa 0,0 l/m 10,3 km/h (2 Bft) S-SO22.5 165 0 min 0 lux 0 W/m
28.01.2016 00:39 9,8 C 9,4 C 0,0 C 86 % 1011,8 hPa 0,0 l/m 10,3 km/h (2 Bft) S-SO22.5 165 0 min 0 lux 0 W/m
28.01.2016 00:44 9,7 C 9,4 C 0,0 C 86 % 1011,8 hPa 0,0 l/m 10,3 km/h (2 Bft) S-SO22.5 165 0 min 0 lux 0 W/m
28.01.2016 00:49 9,6 C 9,4 C 0,0 C 86 % 1010,8 hPa 0,0 l/m 10,3 km/h (2 Bft) S-SO22.5 165 0 min 0 lux 0 W/m
28.01.2016 00:54 9,6 C 9,4 C 0,0 C 86 % 1010,8 hPa 0,0 l/m 10,3 km/h (2 Bft) S-SO22.5 165 0 min 0 lux 0 W/m
28.01.2016 00:59 9,6 C 9,4 C 0,0 C 86 % 1010,8 hPa 0,0 l/m 10,3 km/h (2 Bft) S-SO22.5 165 0 min 0 lux 0 W/m
28.01.2016 01:04 9,6 C 9,3 C 0,0 C 86 % 1010,8 hPa 0,0 l/m 10,3 km/h (2 Bft) S-SO22.5 165 0 min 0 lux 0 W/m
28.01.2016 01:09 9,6 C 9,3 C 0,0 C 87 % 1011,8 hPa 0,0 l/m 10,3 km/h (2 Bft) S-SO22.5 165 0 min 0 lux 0 W/m
28.01.2016 01:14 9,6 C 9,3 C 0,0 C 87 % 1011,8 hPa 0,0 l/m 10,3 km/h (2 Bft) S-SO22.5 165 0 min 0 lux 0 W/m
28.01.2016 01:19 9,5 C 9,3 C 0,0 C 87 % 1011,8 hPa 0,0 l/m 10,3 km/h (2 Bft) S-SO22.5 165 0 min 0 lux 0 W/m
28.01.2016 01:24 9,5 C 9,4 C 0,0 C 87 % 1011,8 hPa 0,0 l/m 10,3 km/h (2 Bft) S-SO22.5 165 0 min 0 lux 0 W/m
28.01.2016 01:29 9,6 C 4,5 C 3,5 C 90 % 1011,8 hPa 0,0 l/m 16,5 km/h (3 Bft) NW67.5 305 0 min 155 lux 0 W/m
28.01.2016 01:34 9,5 C 9,3 C 0,0 C 87 % 1011,8 hPa 0,0 l/m 10,3 km/h (2 Bft) S-SO22.5 165 0 min 0 lux 0 W/m
28.01.2016 01:39 9,5 C 9,4 C 0,0 C 87 % 1011,8 hPa 0,0 l/m 10,3 km/h (2 Bft) S-SO22.5 165 0 min 0 lux 0 W/m
28.01.2016 01:44 9,5 C 9,4 C 0,0 C 87 % 1011,8 hPa 0,0 l/m 10,3 km/h (2 Bft) S-SO22.5 165 0 min 0 lux 0 W/m
28.01.2016 01:49 9,6 C 9,4 C 0,0 C 88 % 1011,8 hPa 0,0 l/m 10,3 km/h (2 Bft) S-SO22.5 165 0 min 0 lux 0 W/m
28.01.2016 01:54 9,6 C 9,4 C 0,0 C 88 % 1011,8 hPa 0,0 l/m 10,3 km/h (2 Bft) S-SO22.5 165 0 min 0 lux 0 W/m
28.01.2016 01:59 9,6 C 9,4 C 0,0 C 88 % 1011,8 hPa 0,0 l/m 10,3 km/h (2 Bft) S-SO22.5 165 0 min 4 lux 0 W/m
28.01.2016 02:04 9,6 C 9,5 C 0,0 C 88 % 1011,8 hPa 0,0 l/m 10,3 km/h (2 Bft) S-SO22.5 165 0 min 400 lux 0 W/m
28.01.2016 02:09 9,6 C 9,5 C 0,0 C 88 % 1011,8 hPa 0,4 l/m 10,3 km/h (2 Bft) S-SO22.5 165 0 min 200 lux 0 W/m
28.01.2016 02:14 9,6 C 9,6 C 0,0 C 88 % 1011,8 hPa 0,0 l/m 10,3 km/h (2 Bft) S-SO22.5 165 0 min 0 lux 0 W/m
28.01.2016 02:19 9,5 C 9,6 C 0,0 C 88 % 1011,8 hPa 0,0 l/m 10,3 km/h (2 Bft) S-SO22.5 165 0 min 0 lux 0 W/m
28.01.2016 02:24 9,6 C 9,6 C 0,0 C 88 % 1011,8 hPa 0,0 l/m 10,3 km/h (2 Bft) S-SO22.5 165 0 min 0 lux 0 W/m
28.01.2016 02:29 9,6 C 9,6 C 0,0 C 88 % 1011,8 hPa 0,0 l/m 10,3 km/h (2 Bft) S-SO22.5 165 0 min 0 lux 0 W/m
28.01.2016 02:34 9,6 C 9,7 C 0,0 C 88 % 1011,8 hPa 0,0 l/m 10,3 km/h (2 Bft) S-SO22.5 165 0 min 0 lux 0 W/m
28.01.2016 02:39 9,6 C 9,7 C 0,0 C 88 % 1011,8 hPa 0,0 l/m 10,3 km/h (2 Bft) S-SO22.5 165 0 min 0 lux 0 W/m
28.01.2016 02:44 9,6 C 9,7 C 0,0 C 88 % 1011,8 hPa 0,0 l/m 10,3 km/h (2 Bft) S-SO22.5 165 0 min 0 lux 0 W/m
28.01.2016 02:49 9,6 C 9,7 C 3,5 C 98 % 1011,8 hPa 0,0 l/m 16,3 km/h (3 Bft) O-SO67.5 105 0 min 165 lux 0 W/m
28.01.2016 02:54 9,6 C 9,7 C 0,0 C 88 % 1011,8 hPa 0,0 l/m 10,3 km/h (2 Bft) S-SO22.5 165 0 min 0 lux 0 W/m
28.01.2016 02:59 9,6 C 9,7 C 0,0 C 88 % 1012,8 hPa 0,0 l/m 10,3 km/h (2 Bft) S-SO22.5 165 0 min 0 lux 0 W/m
28.01.2016 03:04 9,8 C 9,8 C 0,0 C 87 % 1012,8 hPa 0,4 l/m 10,3 km/h (2 Bft) S-SO22.5 165 0 min 0 lux 0 W/m
28.01.2016 03:09 9,8 C 9,8 C 0,0 C 87 % 1012,8 hPa 0,0 l/m 10,3 km/h (2 Bft) S-SO22.5 165 0 min 0 lux 0 W/m
28.01.2016 03:14 9,8 C 9,7 C 0,0 C 87 % 1012,8 hPa 0,0 l/m 10,3 km/h (2 Bft) S-SO22.5 165 0 min 0 lux 0 W/m
28.01.2016 03:18 9,7 C 9,6 C 0,0 C 87 % 1012,8 hPa 0,0 l/m 10,3 km/h (2 Bft) S-SO22.5 165 0 min 0 lux 0 W/m
28.01.2016 03:24 9,4 C 9,4 C 0,0 C 86 % 1012,8 hPa 0,0 l/m 10,3 km/h (2 Bft) S-SO22.5 165 0 min 0 lux 0 W/m
28.01.2016 03:29 9,3 C 9,2 C 0,0 C 86 % 1012,8 hPa 0,0 l/m 10,3 km/h (2 Bft) S-SO22.5 165 0 min 0 lux 0 W/m
28.01.2016 03:34 9,3 C 9,0 C 0,0 C 86 % 1012,8 hPa 0,0 l/m 10,3 km/h (2 Bft) S-SO22.5 165 0 min 0 lux 0 W/m
28.01.2016 03:39 8,9 C 8,6 C 0,0 C 85 % 1013,8 hPa 0,0 l/m 10,3 km/h (2 Bft) S-SO22.5 165 0 min 0 lux 0 W/m
28.01.2016 03:44 8,2 C 7,8 C 0,0 C 85 % 1013,8 hPa 0,0 l/m 10,3 km/h (2 Bft) S-SO22.5 165 0 min 0 lux 0 W/m
28.01.2016 03:49 8,1 C 7,8 C 0,0 C 85 % 1013,8 hPa 0,4 l/m 10,3 km/h (2 Bft) S-SO22.5 165 0 min 0 lux 0 W/m
28.01.2016 03:54 7,9 C 7,5 C 0,0 C 85 % 1013,8 hPa 0,0 l/m 10,3 km/h (2 Bft) S-SO22.5 165 0 min 0 lux 0 W/m
28.01.2016 03:59 7,9 C 7,3 C 0,0 C 85 % 1013,8 hPa 0,0 l/m 10,3 km/h (2 Bft) S-SO22.5 165 0 min 0 lux 0 W/m
28.01.2016 04:04 7,9 C 7,3 C 0,0 C 85 % 1013,8 hPa 0,0 l/m 10,3 km/h (2 Bft) S-SO22.5 165 0 min 0 lux 0 W/m
28.01.2016 04:08 7,5 C 7,1 C 1,5 C 86 % 1013,8 hPa 0,0 l/m 16,5 km/h (3 Bft) N67.5 360 0 min 35,5 klux 0 W/m
28.01.2016 04:14 7,3 C 6,9 C 0,0 C 86 % 1014,8 hPa 0,0 l/m 10,3 km/h (2 Bft) S-SO22.5 165 0 min 0 lux 0 W/m
28.01.2016 04:19 7,3 C 6,9 C 0,0 C 86 % 1014,8 hPa 0,0 l/m 10,3 km/h (2 Bft) S-SO22.5 165 0 min 0 lux 0 W/m
28.01.2016 04:24 7,3 C 6,9 C 0,0 C 86 % 1014,8 hPa 0,4 l/m 10,3 km/h (2 Bft) S-SO22.5 165 0 min 0 lux 0 W/m
28.01.2016 04:29 7,2 C 6,9 C 0,0 C 87 % 1014,8 hPa 0,0 l/m 10,3 km/h (2 Bft) S-SO22.5 165 0 min 0 lux 0 W/m
28.01.2016 04:34 7,2 C 6,8 C 0,0 C 87 % 1014,8 hPa 0,0 l/m 10,3 km/h (2 Bft) S-SO22.5 165 0 min 0 lux 0 W/m
28.01.2016 04:38 7,2 C 6,8 C 0,0 C 87 % 1014,8 hPa 0,0 l/m 10,3 km/h (2 Bft) S-SO22.5 165 0 min 0 lux 0 W/m
28.01.2016 04:44 7,2 C 6,7 C 0,0 C 87 % 1014,8 hPa 0,0 l/m 10,3 km/h (2 Bft) S-SO22.5 165 0 min 0 lux 0 W/m
28.01.2016 04:49 7,2 C 6,7 C 0,0 C 87 % 1014,8 hPa 0,0 l/m 10,3 km/h (2 Bft) S-SO22.5 165 0 min 0 lux 0 W/m
28.01.2016 04:54 7,2 C 6,7 C 0,0 C 87 % 1014,8 hPa 0,0 l/m 10,3 km/h (2 Bft) S-SO22.5 165 0 min 0 lux 0 W/m
28.01.2016 04:59 7,2 C 6,8 C 0,0 C 87 % 1014,8 hPa 0,4 l/m 10,3 km/h (2 Bft) S-SO22.5 165 0 min 0 lux 0 W/m
28.01.2016 05:04 7,2 C 6,7 C 0,0 C 87 % 1014,8 hPa 0,0 l/m 10,3 km/h (2 Bft) S-SO22.5 165 0 min 0 lux 0 W/m
28.01.2016 05:09 7,2 C 6,6 C 0,0 C 87 % 1015,8 hPa 0,0 l/m 10,3 km/h (2 Bft) S-SO22.5 165 0 min 0 lux 0 W/m
28.01.2016 05:14 7,3 C 6,5 C 0,0 C 87 % 1015,8 hPa 0,0 l/m 10,3 km/h (2 Bft) S-SO22.5 165 0 min 0 lux 0 W/m
28.01.2016 05:19 7,3 C 6,6 C 0,0 C 88 % 1015,8 hPa 0,0 l/m 10,3 km/h (2 Bft) S-SO22.5 165 0 min 0 lux 0 W/m
28.01.2016 05:24 7,3 C 6,6 C 0,0 C 88 % 1015,8 hPa 0,0 l/m 10,3 km/h (2 Bft) S-SO22.5 165 0 min 0 lux 0 W/m
28.01.2016 05:28 7,3 C 6,7 C 3,5 C 88 % 1015,8 hPa 0,0 l/m 10,0 km/h (2 Bft) NW67.5 305 0 min 265 lux 0 W/m
28.01.2016 05:34 7,4 C 6,8 C 0,0 C 88 % 1015,8 hPa 0,0 l/m 10,3 km/h (2 Bft) S-SO22.5 165 0 min 0 lux 0 W/m
28.01.2016 05:39 7,4 C 6,9 C 0,0 C 88 % 1015,8 hPa 0,0 l/m 10,3 km/h (2 Bft) S-SO22.5 165 0 min 0 lux 0 W/m
28.01.2016 05:44 7,4 C 7,0 C 0,0 C 88 % 1015,8 hPa 0,0 l/m 10,3 km/h (2 Bft) S-SO22.5 165 0 min 0 lux 0 W/m
28.01.2016 05:49 7,4 C 7,0 C 0,0 C 88 % 1016,8 hPa 0,0 l/m 10,3 km/h (2 Bft) S-SO22.5 165 0 min 0 lux 0 W/m
28.01.2016 05:54 7,8 C 6,6 C 0,0 C 87 % 1016,8 hPa 0,0 l/m 10,3 km/h (2 Bft) S-SO22.5 165 0 min 0 lux 0 W/m
28.01.2016 05:59 7,8 C 6,6 C 0,0 C 87 % 1016,8 hPa 0,0 l/m 10,3 km/h (2 Bft) S-SO22.5 165 0 min 0 lux 0 W/m
28.01.2016 06:04 7,8 C 6,4 C 0,0 C 87 % 1016,8 hPa 0,0 l/m 10,3 km/h (2 Bft) S-SO22.5 165 0 min 0 lux 0 W/m
28.01.2016 06:09 7,7 C 6,2 C 0,0 C 86 % 1016,8 hPa 0,0 l/m 10,3 km/h (2 Bft) S-SO22.5 165 0 min 0 lux 0 W/m
28.01.2016 06:14 7,6 C 5,9 C 0,0 C 85 % 1016,8 hPa 0,0 l/m 10,3 km/h (2 Bft) S-SO22.5 165 0 min 0 lux 0 W/m
28.01.2016 06:19 7,6 C 5,8 C 0,0 C 85 % 1016,8 hPa 0,0 l/m 10,3 km/h (2 Bft) S-SO22.5 165 0 min 0 lux 0 W/m
28.01.2016 06:24 7,6 C 5,6 C 0,0 C 85 % 1016,8 hPa 0,0 l/m 10,3 km/h (2 Bft) S-SO22.5 165 0 min 0 lux 0 W/m
28.01.2016 06:29 7,4 C 5,8 C 0,0 C 84 % 1017,8 hPa 0,0 l/m 10,3 km/h (2 Bft) S-SO22.5 165 0 min 0 lux 0 W/m
28.01.2016 06:34 7,4 C 5,9 C 0,0 C 84 % 1017,8 hPa 0,0 l/m 10,3 km/h (2 Bft) S-SO22.5 165 0 min 0 lux 0 W/m
28.01.2016 06:39 7,4 C 5,8 C 0,0 C 83 % 1017,8 hPa 0,0 l/m 10,3 km/h (2 Bft) S-SO22.5 165 0 min 0 lux 0 W/m
28.01.2016 06:44 7,4 C 5,5 C 0,0 C 83 % 1017,8 hPa 0,0 l/m 10,3 km/h (2 Bft) S-SO22.5 165 0 min 0 lux 0 W/m
28.01.2016 06:49 7,4 C 5,3 C 3,5 C 83 % 1017,8 hPa 0,0 l/m 60,0 km/h (7 Bft) SO 140 0 min 15,0 klux 0 W/m
28.01.2016 06:54 7,2 C 5,3 C 0,0 C 81 % 1017,8 hPa 0,0 l/m 10,3 km/h (2 Bft) S-SO22.5 165 0 min 0 lux 0 W/m
28.01.2016 06:59 7,2 C 5,1 C 0,0 C 81 % 1018,8 hPa 0,0 l/m 10,3 km/h (2 Bft) S-SO22.5 165 0 min 0 lux 0 W/m
28.01.2016 07:03 7,2 C 4,8 C 0,0 C 81 % 1018,8 hPa 0,0 l/m 10,3 km/h (2 Bft) S-SO22.5 165 0 min 0 lux 0 W/m
28.01.2016 07:09 6,9 C 4,8 C 0,0 C 80 % 1018,8 hPa 0,0 l/m 10,3 km/h (2 Bft) S-SO22.5 165 0 min 8 lux 0 W/m
28.01.2016 07:14 6,9 C 4,5 C 0,0 C 80 % 1018,8 hPa 0,0 l/m 10,3 km/h (2 Bft) S-SO22.5 165 0 min 8 lux 0 W/m
28.01.2016 07:19 6,9 C 4,6 C 0,0 C 80 % 1018,8 hPa 0,0 l/m 10,3 km/h (2 Bft) S-SO22.5 165 0 min 8 lux 0 W/m
28.01.2016 07:24 6,9 C 4,5 C 0,0 C 80 % 1018,8 hPa 0,0 l/m 10,3 km/h (2 Bft) S-SO22.5 165 0 min 8 lux 0 W/m
28.01.2016 07:29 6,7 C 4,4 C 0,0 C 80 % 1018,8 hPa 0,0 l/m 10,3 km/h (2 Bft) S-SO22.5 165 0 min 8 lux 0 W/m
28.01.2016 07:33 6,7 C 4,3 C 0,0 C 80 % 1018,8 hPa 0,0 l/m 10,3 km/h (2 Bft) S-SO22.5 165 0 min 8 lux 0 W/m
28.01.2016 07:39 6,7 C 4,3 C 0,0 C 80 % 1019,9 hPa 0,0 l/m 10,3 km/h (2 Bft) S-SO22.5 165 0 min 8 lux 0 W/m
28.01.2016 07:44 6,7 C 4,0 C 0,0 C 80 % 1019,9 hPa 0,0 l/m 10,3 km/h (2 Bft) S-SO22.5 165 0 min 0 lux 0 W/m
28.01.2016 07:49 6,7 C 3,7 C 0,0 C 80 % 1019,9 hPa 0,0 l/m 10,3 km/h (2 Bft) S-SO22.5 165 0 min 0 lux 0 W/m
28.01.2016 07:54 6,7 C 3,7 C 0,0 C 80 % 1019,9 hPa 0,0 l/m 10,3 km/h (2 Bft) S-SO22.5 165 0 min 0 lux 0 W/m
28.01.2016 07:59 6,7 C 3,7 C 0,0 C 80 % 1019,9 hPa 0,0 l/m 10,3 km/h (2 Bft) S-SO22.5 165 0 min 0 lux 0 W/m
28.01.2016 08:04 6,7 C 3,7 C 0,0 C 80 % 1019,9 hPa 0,0 l/m 10,3 km/h (2 Bft) S-SO22.5 165 0 min 132 lux 0 W/m
28.01.2016 08:09 6,7 C 3,7 C 3,5 C 80 % 1019,9 hPa 0,0 l/m 10,0 km/h (2 Bft) SO 140 0 min 15,0 klux 0 W/m
28.01.2016 08:14 6,7 C 3,7 C 0,0 C 80 % 1019,9 hPa 0,0 l/m 10,3 km/h (2 Bft) S-SO22.5 165 0 min 390 lux 0 W/m
28.01.2016 08:19 6,7 C 3,7 C 0,0 C 80 % 1020,9 hPa 0,0 l/m 10,3 km/h (2 Bft) S-SO22.5 165 0 min 390 lux 0 W/m
28.01.2016 08:24 6,7 C 3,7 C 0,0 C 80 % 1020,9 hPa 0,0 l/m 10,3 km/h (2 Bft) S-SO22.5 165 0 min 926 lux 6 W/m
28.01.2016 08:29 6,7 C 3,7 C 0,0 C 80 % 1020,9 hPa 0,0 l/m 10,3 km/h (2 Bft) S-SO22.5 165 0 min 926 lux 6 W/m
28.01.2016 08:34 6,7 C 3,7 C 0,0 C 80 % 1020,9 hPa 0,0 l/m 10,3 km/h (2 Bft) S-SO22.5 165 0 min 1,57 klux 11 W/m
28.01.2016 08:39 6,7 C 3,7 C 0,0 C 80 % 1020,9 hPa 0,0 l/m 10,3 km/h (2 Bft) S-SO22.5 165 0 min 1,57 klux 11 W/m
28.01.2016 08:44 6,7 C 2,6 C 0,0 C 80 % 1020,9 hPa 0,0 l/m 10,3 km/h (2 Bft) S-SO22.5 165 5 min 4,22 klux 29 W/m
28.01.2016 08:49 6,7 C 3,1 C 0,0 C 80 % 1020,9 hPa 0,0 l/m 10,3 km/h (2 Bft) S-SO22.5 165 5 min 5,81 klux 40 W/m
28.01.2016 08:54 6,7 C 3,3 C 0,0 C 80 % 1020,9 hPa 0,0 l/m 10,3 km/h (2 Bft) S-SO22.5 165 5 min 7,08 klux 48 W/m
28.01.2016 08:58 6,7 C 3,6 C 0,0 C 80 % 1020,9 hPa 0,0 l/m 10,3 km/h (2 Bft) S-SO22.5 165 4 min 6,47 klux 44 W/m
28.01.2016 09:04 6,7 C 3,7 C 0,0 C 80 % 1020,9 hPa 0,0 l/m 10,3 km/h (2 Bft) S-SO22.5 165 0 min 6,00 klux 41 W/m
28.01.2016 09:09 6,7 C 3,7 C 0,0 C 80 % 1020,9 hPa 0,0 l/m 10,3 km/h (2 Bft) S-SO22.5 165 0 min 6,00 klux 41 W/m
28.01.2016 09:14 6,7 C 3,7 C 0,0 C 80 % 1021,9 hPa 0,0 l/m 10,3 km/h (2 Bft) S-SO22.5 165 0 min 6,00 klux 41 W/m
28.01.2016 09:19 6,7 C 3,7 C 0,0 C 80 % 1021,9 hPa 0,0 l/m 10,3 km/h (2 Bft) S-SO22.5 165 0 min 6,00 klux 41 W/m
28.01.2016 09:24 6,7 C 3,7 C 0,0 C 80 % 1021,9 hPa 0,0 l/m 10,3 km/h (2 Bft) S-SO22.5 165 5 min 12,1 klux 83 W/m
28.01.2016 09:29 6,7 C 3,7 C 3,5 C 80 % 1021,9 hPa 0,0 l/m 10,0 km/h (2 Bft) S-SO 150 0 min 1,44 klux 10 W/m
28.01.2016 09:34 6,7 C 3,7 C 0,0 C 80 % 1021,9 hPa 0,0 l/m 10,3 km/h (2 Bft) S-SO22.5 165 5 min 18,3 klux 125 W/m
28.01.2016 09:39 6,7 C 3,7 C 0,0 C 80 % 1021,9 hPa 0,0 l/m 10,3 km/h (2 Bft) S-SO22.5 165 5 min 22,9 klux 157 W/m
28.01.2016 09:44 6,7 C 3,7 C 0,0 C 80 % 1021,9 hPa 0,0 l/m 10,3 km/h (2 Bft) S-SO22.5 165 5 min 22,9 klux 157 W/m
28.01.2016 09:49 6,7 C 3,7 C 0,0 C 80 % 1021,9 hPa 0,0 l/m 10,3 km/h (2 Bft) S-SO22.5 165 5 min 25,5 klux 174 W/m
28.01.2016 09:54 6,7 C 3,7 C 0,0 C 80 % 1021,9 hPa 0,0 l/m 10,3 km/h (2 Bft) S-SO22.5 165 5 min 24,3 klux 166 W/m
28.01.2016 09:59 6,7 C 3,7 C 0,0 C 80 % 1022,9 hPa 0,0 l/m 10,3 km/h (2 Bft) S-SO22.5 165 5 min 25,6 klux 175 W/m
28.01.2016 10:04 6,7 C 3,7 C 0,0 C 80 % 1022,9 hPa 0,0 l/m 10,3 km/h (2 Bft) S-SO22.5 165 5 min 27,8 klux 190 W/m
28.01.2016 10:09 6,7 C 3,7 C 0,0 C 80 % 1022,9 hPa 0,0 l/m 10,3 km/h (2 Bft) S-SO22.5 165 5 min 30,8 klux 211 W/m
28.01.2016 10:14 6,7 C 3,7 C 0,0 C 80 % 1022,9 hPa 0,0 l/m 10,3 km/h (2 Bft) S-SO22.5 165 5 min 31,4 klux 215 W/m
28.01.2016 10:19 6,7 C 3,7 C 0,0 C 80 % 1022,9 hPa 0,0 l/m 10,3 km/h (2 Bft) S-SO22.5 165 5 min 32,4 klux 222 W/m
28.01.2016 10:24 6,7 C 3,7 C 0,0 C 80 % 1022,9 hPa 0,0 l/m 10,3 km/h (2 Bft) S-SO22.5 165 5 min 31,9 klux 218 W/m
28.01.2016 10:29 6,7 C 3,7 C 0,0 C 80 % 1022,9 hPa 0,0 l/m 10,3 km/h (2 Bft) S-SO22.5 165 5 min 33,7 klux 231 W/m
28.01.2016 10:34 6,7 C 3,7 C 0,0 C 80 % 1022,9 hPa 0,0 l/m 10,3 km/h (2 Bft) S-SO22.5 165 5 min 34,0 klux 233 W/m
28.01.2016 10:39 6,7 C 3,7 C 0,0 C 80 % 1022,9 hPa 0,0 l/m 10,3 km/h (2 Bft) S-SO22.5 165 5 min 32,1 klux 220 W/m
28.01.2016 10:44 6,7 C 3,7 C 0,0 C 80 % 1022,9 hPa 0,0 l/m 10,3 km/h (2 Bft) S-SO22.5 165 5 min 36,2 klux 248 W/m
28.01.2016 10:49 7,1 C 13,7 C 0,0 C 78 % 1022,9 hPa 0,0 l/m 10,0 km/h (2 Bft) S-SO 150 5 min 200 klux 1368 W/m
28.01.2016 10:54 7,1 C 13,6 C 0,0 C 78 % 1023,9 hPa 0,0 l/m 25,5 km/h (4 Bft) W45 275 5 min 34,4 klux 235 W/m
28.01.2016 10:59 7,2 C 13,8 C 0,0 C 77 % 1023,9 hPa 0,0 l/m 25,5 km/h (4 Bft) W45 275 5 min 39,3 klux 269 W/m
28.01.2016 11:04 7,2 C 14,7 C 0,0 C 77 % 1023,9 hPa 0,0 l/m 18,4 km/h (3 Bft) W45 270 5 min 40,7 klux 278 W/m
28.01.2016 11:09 7,2 C 15,2 C 0,0 C 77 % 1023,9 hPa 0,0 l/m 18,4 km/h (3 Bft) W45 270 5 min 41,1 klux 281 W/m
28.01.2016 11:14 7,4 C 15,8 C 0,0 C 76 % 1023,9 hPa 0,0 l/m 18,4 km/h (3 Bft) W45 270 5 min 41,6 klux 285 W/m
28.01.2016 11:19 7,5 C 15,8 C 0,0 C 76 % 1023,9 hPa 0,0 l/m 18,4 km/h (3 Bft) W45 270 5 min 41,8 klux 286 W/m
28.01.2016 11:24 7,5 C 16,1 C 0,0 C 75 % 1023,9 hPa 0,0 l/m 18,4 km/h (3 Bft) W45 270 5 min 43,5 klux 298 W/m
28.01.2016 11:29 7,5 C 16,8 C 0,0 C 75 % 1023,9 hPa 0,0 l/m 18,4 km/h (3 Bft) W45 270 5 min 45,2 klux 309 W/m
28.01.2016 11:34 7,8 C 17,1 C 0,0 C 76 % 1023,9 hPa 0,0 l/m 18,4 km/h (3 Bft) W45 270 5 min 45,5 klux 311 W/m
28.01.2016 11:39 7,7 C 16,9 C 0,0 C 74 % 1023,9 hPa 0,0 l/m 18,4 km/h (3 Bft) W45 270 5 min 45,2 klux 309 W/m
28.01.2016 11:44 7,7 C 16,3 C 0,0 C 74 % 1023,9 hPa 0,0 l/m 18,4 km/h (3 Bft) W45 270 5 min 45,4 klux 311 W/m
28.01.2016 11:49 7,7 C 16,4 C 0,0 C 74 % 1023,9 hPa 0,0 l/m 18,4 km/h (3 Bft) W45 270 5 min 45,7 klux 313 W/m
28.01.2016 11:54 7,8 C 16,5 C 0,0 C 74 % 1023,9 hPa 0,0 l/m 18,4 km/h (3 Bft) W45 270 5 min 44,9 klux 307 W/m
28.01.2016 11:59 7,8 C 16,8 C 0,0 C 74 % 1023,9 hPa 0,0 l/m 18,4 km/h (3 Bft) W45 270 5 min 44,0 klux 301 W/m
28.01.2016 12:04 7,8 C 16,8 C 0,0 C 74 % 1023,9 hPa 0,0 l/m 18,4 km/h (3 Bft) W45 270 5 min 46,2 klux 316 W/m
28.01.2016 12:09 7,9 C 17,0 C 0,0 C 73 % 1023,9 hPa 0,0 l/m 18,4 km/h (3 Bft) W45 270 5 min 47,9 klux 328 W/m
28.01.2016 12:14 7,9 C 17,5 C 0,0 C 72 % 1023,9 hPa 0,0 l/m 18,4 km/h (3 Bft) W45 270 5 min 43,8 klux 300 W/m
28.01.2016 12:19 7,9 C 17,3 C 0,0 C 72 % 1023,9 hPa 0,0 l/m 18,4 km/h (3 Bft) W45 270 5 min 41,0 klux 280 W/m
28.01.2016 12:23 8,0 C 17,3 C 0,0 C 71 % 1023,8 hPa 0,0 l/m 18,4 km/h (3 Bft) W45 270 4 min 47,8 klux 327 W/m
28.01.2016 12:29 8,0 C 16,7 C 0,0 C 71 % 1023,8 hPa 0,0 l/m 18,4 km/h (3 Bft) W45 270 6 min 46,2 klux 316 W/m
28.01.2016 12:34 8,2 C 17,0 C 0,0 C 70 % 1023,8 hPa 0,0 l/m 18,4 km/h (3 Bft) W45 270 5 min 47,6 klux 326 W/m
28.01.2016 12:39 8,2 C 16,2 C 0,0 C 70 % 1023,8 hPa 0,0 l/m 18,4 km/h (3 Bft) W45 270 5 min 43,0 klux 294 W/m
28.01.2016 12:44 8,1 C 16,4 C 0,0 C 71 % 1023,8 hPa 0,0 l/m 18,4 km/h (3 Bft) W45 270 5 min 41,2 klux 282 W/m
28.01.2016 12:49 8,1 C 16,3 C 0,0 C 71 % 1023,8 hPa 0,0 l/m 18,4 km/h (3 Bft) W45 270 5 min 46,5 klux 318 W/m
28.01.2016 12:54 8,2 C 16,7 C 0,0 C 68 % 1023,8 hPa 0,0 l/m 18,4 km/h (3 Bft) W45 270 5 min 43,9 klux 300 W/m
28.01.2016 12:59 8,2 C 17,6 C 0,0 C 68 % 1023,8 hPa 0,0 l/m 18,4 km/h (3 Bft) W45 270 5 min 47,0 klux 321 W/m
28.01.2016 13:04 8,2 C 17,4 C 0,0 C 68 % 1023,8 hPa 0,0 l/m 18,4 km/h (3 Bft) W45 270 5 min 47,1 klux 322 W/m
28.01.2016 13:09 8,3 C 17,4 C 0,0 C 67 % 1023,8 hPa 0,0 l/m 18,4 km/h (3 Bft) W45 270 5 min 45,9 klux 314 W/m
28.01.2016 13:14 8,4 C 17,3 C 0,0 C 68 % 1023,8 hPa 0,0 l/m 18,4 km/h (3 Bft) W45 270 5 min 45,7 klux 313 W/m
28.01.2016 13:19 8,3 C 17,9 C 0,0 C 65 % 1023,8 hPa 0,0 l/m 18,4 km/h (3 Bft) W45 270 5 min 39,8 klux 272 W/m
28.01.2016 13:24 8,3 C 16,6 C 0,0 C 65 % 1023,8 hPa 0,0 l/m 18,4 km/h (3 Bft) W45 270 5 min 43,5 klux 298 W/m
28.01.2016 13:29 8,3 C 16,6 C 0,0 C 65 % 1023,8 hPa 0,0 l/m 18,4 km/h (3 Bft) W45 270 5 min 40,2 klux 275 W/m
28.01.2016 13:34 8,3 C 16,5 C 0,0 C 65 % 1023,8 hPa 0,0 l/m 18,4 km/h (3 Bft) W45 270 5 min 39,8 klux 272 W/m
28.01.2016 13:39 8,2 C 16,1 C 0,0 C 67 % 1023,8 hPa 0,0 l/m 18,4 km/h (3 Bft) W45 270 5 min 35,2 klux 241 W/m
28.01.2016 13:44 8,2 C 14,9 C 0,0 C 67 % 1023,8 hPa 0,0 l/m 18,4 km/h (3 Bft) W45 270 5 min 38,8 klux 265 W/m
28.01.2016 13:49 8,2 C 15,4 C 0,0 C 67 % 1023,8 hPa 0,0 l/m 18,4 km/h (3 Bft) W45 270 5 min 46,2 klux 316 W/m
28.01.2016 13:54 8,2 C 15,1 C 0,0 C 67 % 1023,8 hPa 0,0 l/m 18,4 km/h (3 Bft) W45 270 5 min 39,9 klux 273 W/m
28.01.2016 13:59 8,2 C 15,0 C 0,0 C 63 % 1023,8 hPa 0,0 l/m 18,4 km/h (3 Bft) W45 270 5 min 34,6 klux 237 W/m
28.01.2016 14:04 8,2 C 14,6 C 0,0 C 63 % 1023,8 hPa 0,0 l/m 18,4 km/h (3 Bft) W45 270 5 min 34,3 klux 235 W/m
28.01.2016 14:09 8,2 C 13,9 C 0,0 C 63 % 1023,8 hPa 0,0 l/m 18,4 km/h (3 Bft) W45 270 5 min 31,6 klux 216 W/m
28.01.2016 14:14 8,0 C 13,7 C 0,0 C 65 % 1023,8 hPa 0,0 l/m 18,4 km/h (3 Bft) W45 270 5 min 35,1 klux 240 W/m
28.01.2016 14:19 8,0 C 14,3 C 0,0 C 65 % 1023,8 hPa 0,0 l/m 18,4 km/h (3 Bft) W45 270 5 min 39,2 klux 268 W/m
28.01.2016 14:24 8,0 C 15,3 C 0,0 C 65 % 1023,8 hPa 0,0 l/m 18,4 km/h (3 Bft) W45 270 5 min 30,0 klux 205 W/m
28.01.2016 14:29 8,0 C 13,8 C 0,0 C 65 % 1023,8 hPa 0,0 l/m 18,4 km/h (3 Bft) W45 270 5 min 27,2 klux 186 W/m
28.01.2016 14:34 8,1 C 12,6 C 0,0 C 63 % 1023,8 hPa 0,0 l/m 18,4 km/h (3 Bft) W45 270 5 min 24,2 klux 166 W/m
28.01.2016 14:39 7,9 C 11,9 C 0,0 C 62 % 1023,9 hPa 0,0 l/m 18,4 km/h (3 Bft) W45 270 0 min 21,4 klux 146 W/m
28.01.2016 14:44 7,9 C 11,9 C 0,0 C 64 % 1023,9 hPa 0,0 l/m 18,4 km/h (3 Bft) W45 270 5 min 25,8 klux 176 W/m
28.01.2016 14:49 7,9 C 11,3 C 0,0 C 64 % 1023,9 hPa 0,0 l/m 18,4 km/h (3 Bft) W45 270 5 min 21,3 klux 146 W/m
28.01.2016 14:54 7,9 C 11,0 C 0,0 C 64 % 1023,9 hPa 0,0 l/m 18,4 km/h (3 Bft) W45 270 0 min 18,2 klux 124 W/m
28.01.2016 14:59 0,0 C 10,0 C 0,0 C 0 % 1024,0 hPa 0,0 l/m 18,4 km/h (3 Bft) W45 270 5 min 21,0 klux 144 W/m
28.01.2016 15:04 0,0 C 9,6 C 0,0 C 0 % 1024,0 hPa 0,0 l/m 18,4 km/h (3 Bft) W45 270 5 min 20,5 klux 140 W/m
28.01.2016 15:09 7,6 C 10,1 C 0,0 C 66 % 1023,9 hPa 0,0 l/m 18,4 km/h (3 Bft) W45 270 5 min 28,6 klux 196 W/m
28.01.2016 15:14 7,6 C 10,9 C 0,0 C 66 % 1023,9 hPa 0,0 l/m 18,4 km/h (3 Bft) W45 270 5 min 24,2 klux 166 W/m
28.01.2016 15:19 7,6 C 10,8 C 0,0 C 67 % 1023,9 hPa 0,0 l/m 18,4 km/h (3 Bft) W45 270 5 min 22,7 klux 155 W/m
28.01.2016 15:24 7,6 C 10,7 C 0,0 C 67 % 1023,9 hPa 0,0 l/m 18,4 km/h (3 Bft) W45 270 5 min 21,0 klux 144 W/m
28.01.2016 15:29 7,6 C 10,7 C 0,0 C 66 % 1023,9 hPa 0,0 l/m 18,4 km/h (3 Bft) W45 270 5 min 21,0 klux 144 W/m
28.01.2016 15:33 7,6 C 9,8 C 0,0 C 66 % 1023,9 hPa 0,0 l/m 18,4 km/h (3 Bft) W45 270 4 min 18,1 klux 124 W/m
28.01.2016 15:39 7,6 C 9,6 C 0,0 C 66 % 1023,9 hPa 0,0 l/m 18,4 km/h (3 Bft) W45 270 6 min 18,2 klux 124 W/m
28.01.2016 15:44 7,4 C 9,3 C 0,0 C 69 % 1023,9 hPa 0,0 l/m 18,4 km/h (3 Bft) W45 270 5 min 15,3 klux 105 W/m
28.01.2016 15:49 7,4 C 8,9 C 0,0 C 69 % 1023,9 hPa 0,0 l/m 18,4 km/h (3 Bft) W45 270 5 min 15,9 klux 109 W/m
28.01.2016 15:54 7,4 C 8,7 C 0,0 C 69 % 1023,9 hPa 0,0 l/m 18,4 km/h (3 Bft) W45 270 5 min 15,9 klux 109 W/m
28.01.2016 15:59 7,4 C 8,7 C 0,0 C 69 % 1023,9 hPa 0,0 l/m 18,4 km/h (3 Bft) W45 270 5 min 16,0 klux 109 W/m
28.01.2016 16:04 7,4 C 8,6 C 0,0 C 69 % 1023,9 hPa 0,0 l/m 18,4 km/h (3 Bft) W45 270 5 min 16,5 klux 113 W/m
28.01.2016 16:09 7,2 C 8,2 C 0,0 C 69 % 1023,9 hPa 0,0 l/m 18,4 km/h (3 Bft) W45 270 5 min 16,5 klux 113 W/m
28.01.2016 16:14 7,2 C 7,8 C 0,0 C 69 % 1023,9 hPa 0,0 l/m 18,4 km/h (3 Bft) W45 270 5 min 14,7 klux 101 W/m
28.01.2016 16:19 6,8 C 7,8 C 0,0 C 71 % 1023,9 hPa 0,0 l/m 18,4 km/h (3 Bft) W45 270 5 min 14,7 klux 101 W/m
28.01.2016 16:24 6,8 C 7,7 C 0,0 C 71 % 1023,9 hPa 0,0 l/m 18,4 km/h (3 Bft) W45 270 5 min 11,6 klux 79 W/m
28.01.2016 16:29 6,8 C 7,2 C 0,0 C 71 % 1023,9 hPa 0,0 l/m 18,4 km/h (3 Bft) W45 270 5 min 8,62 klux 59 W/m
28.01.2016 16:34 6,8 C 7,2 C 0,0 C 71 % 1024,9 hPa 0,0 l/m 18,4 km/h (3 Bft) W45 270 0 min 6,11 klux 42 W/m
28.01.2016 16:39 6,8 C 6,0 C 0,0 C 71 % 1024,9 hPa 0,0 l/m 18,4 km/h (3 Bft) W45 270 0 min 4,52 klux 31 W/m
28.01.2016 16:43 6,8 C 5,3 C 0,0 C 71 % 1024,9 hPa 0,0 l/m 18,4 km/h (3 Bft) W45 270 0 min 4,52 klux 31 W/m
28.01.2016 16:49 6,4 C 5,3 C 0,0 C 70 % 1023,9 hPa 0,0 l/m 18,4 km/h (3 Bft) W45 270 6 min 3,86 klux 26 W/m
28.01.2016 16:54 6,4 C 5,3 C 0,0 C 70 % 1024,9 hPa 0,0 l/m 13,8 km/h (3 Bft) SW22.5 235 0 min 2,57 klux 18 W/m
28.01.2016 16:59 6,4 C 5,3 C 0,0 C 70 % 1024,9 hPa 0,0 l/m 8,2 km/h (2 Bft) SW 225 5 min 1,92 klux 13 W/m
28.01.2016 17:04 6,4 C 4,0 C 0,0 C 70 % 1023,9 hPa 0,0 l/m 8,2 km/h (2 Bft) SW 225 0 min 1,33 klux 9 W/m
28.01.2016 17:09 6,4 C 3,7 C 0,0 C 70 % 1023,9 hPa 0,0 l/m 8,2 km/h (2 Bft) SW 225 0 min 936 lux 0 W/m
28.01.2016 17:14 6,4 C 3,5 C 0,0 C 70 % 1023,9 hPa 0,0 l/m 8,2 km/h (2 Bft) SW 225 0 min 728 lux 0 W/m
28.01.2016 17:19 6,4 C 3,2 C 0,0 C 70 % 1024,9 hPa 0,0 l/m 8,2 km/h (2 Bft) SW 225 0 min 503 lux 0 W/m
28.01.2016 17:24 6,4 C 3,2 C 0,0 C 70 % 1023,9 hPa 0,0 l/m 8,2 km/h (2 Bft) SW 225 0 min 391 lux 0 W/m
28.01.2016 17:29 6,4 C 3,2 C 0,0 C 70 % 1023,9 hPa 0,0 l/m 8,2 km/h (2 Bft) SW 225 0 min 259 lux 0 W/m
28.01.2016 17:34 6,4 C 3,2 C 0,0 C 70 % 1023,9 hPa 0,0 l/m 8,2 km/h (2 Bft) SW 225 0 min 259 lux 0 W/m
28.01.2016 17:39 6,4 C 3,2 C 0,0 C 70 % 1023,9 hPa 0,0 l/m 8,2 km/h (2 Bft) SW 225 0 min 53 lux 0 W/m
28.01.2016 17:44 6,4 C 3,2 C 0,0 C 70 % 1023,9 hPa 0,0 l/m 8,2 km/h (2 Bft) SW 225 0 min 23 lux 0 W/m
28.01.2016 17:49 6,4 C 3,2 C 0,0 C 70 % 1023,9 hPa 0,0 l/m 8,2 km/h (2 Bft) SW 225 0 min 11 lux 0 W/m
28.01.2016 17:54 6,4 C 3,2 C 0,0 C 70 % 1024,9 hPa 0,0 l/m 8,2 km/h (2 Bft) SW 225 0 min 5 lux 0 W/m
28.01.2016 17:59 6,4 C 3,2 C 0,0 C 70 % 1024,9 hPa 0,0 l/m 8,2 km/h (2 Bft) SW 225 0 min 5 lux 0 W/m
28.01.2016 18:04 6,4 C 3,2 C 0,0 C 70 % 1024,9 hPa 0,0 l/m 8,2 km/h (2 Bft) SW 225 0 min 5 lux 0 W/m
28.01.2016 18:09 6,4 C 3,2 C 0,0 C 70 % 1024,9 hPa 0,0 l/m 8,2 km/h (2 Bft) SW 225 0 min 0 lux 0 W/m
28.01.2016 18:14 6,4 C 3,2 C 0,0 C 70 % 1024,9 hPa 0,0 l/m 9,2 km/h (2 Bft) SW 220 0 min 0 lux 0 W/m
28.01.2016 18:19 6,4 C 3,2 C 0,0 C 70 % 1024,9 hPa 0,0 l/m 9,2 km/h (2 Bft) SW 220 0 min 0 lux 0 W/m
28.01.2016 18:24 6,4 C 3,2 C 0,0 C 70 % 1024,9 hPa 0,0 l/m 9,2 km/h (2 Bft) SW 220 0 min 0 lux 0 W/m
28.01.2016 18:29 4,8 C 3,2 C 0,0 C 74 % 1024,9 hPa 0,0 l/m 9,2 km/h (2 Bft) SW 220 0 min 0 lux 0 W/m
28.01.2016 18:34 4,8 C 3,2 C 0,0 C 75 % 1024,9 hPa 0,0 l/m 9,2 km/h (2 Bft) SW 220 0 min 0 lux 0 W/m
28.01.2016 18:39 4,8 C 3,2 C 0,0 C 75 % 1024,9 hPa 0,0 l/m 9,2 km/h (2 Bft) SW 220 0 min 0 lux 0 W/m
28.01.2016 18:44 4,8 C 3,2 C 0,0 C 75 % 1024,9 hPa 0,0 l/m 10,8 km/h (2 Bft) S-SW22.5 210 0 min 0 lux 0 W/m
28.01.2016 18:49 4,8 C 3,2 C 0,0 C 75 % 1024,9 hPa 0,0 l/m 10,8 km/h (2 Bft) S-SW22.5 210 0 min 200 klux 0 W/m
28.01.2016 18:54 5,2 C 3,2 C 0,0 C 74 % 1024,9 hPa 0,0 l/m 12,1 km/h (2 Bft) S-SW22.5 205 0 min 0 lux 0 W/m
28.01.2016 18:59 5,2 C 3,2 C 0,0 C 74 % 1024,9 hPa 0,0 l/m 12,1 km/h (2 Bft) S-SW22.5 205 0 min 0 lux 0 W/m
28.01.2016 19:04 5,2 C 3,2 C 0,0 C 74 % 1024,9 hPa 0,0 l/m 12,1 km/h (2 Bft) S-SW22.5 205 0 min 0 lux 0 W/m
28.01.2016 19:09 4,8 C 3,2 C 0,0 C 74 % 1024,9 hPa 0,0 l/m 12,1 km/h (2 Bft) S-SW22.5 205 0 min 0 lux 0 W/m
28.01.2016 19:14 4,8 C 3,2 C 0,0 C 74 % 1024,9 hPa 0,0 l/m 12,1 km/h (2 Bft) S-SW22.5 205 0 min 0 lux 0 W/m
28.01.2016 19:19 4,8 C 3,2 C 0,0 C 74 % 1024,9 hPa 0,0 l/m 12,1 km/h (2 Bft) S-SW22.5 205 0 min 0 lux 0 W/m
28.01.2016 19:24 4,8 C 3,2 C 0,0 C 74 % 1024,9 hPa 0,0 l/m 12,1 km/h (2 Bft) S-SW22.5 205 0 min 0 lux 0 W/m
28.01.2016 19:29 5,1 C 3,2 C 0,0 C 74 % 1024,9 hPa 0,0 l/m 12,1 km/h (2 Bft) S-SW22.5 205 0 min 0 lux 0 W/m
28.01.2016 19:34 5,1 C 3,2 C 0,0 C 74 % 1024,9 hPa 0,0 l/m 12,8 km/h (3 Bft) S-SW22.5 205 0 min 0 lux 0 W/m
28.01.2016 19:39 5,1 C 3,2 C 0,0 C 74 % 1024,9 hPa 0,0 l/m 12,6 km/h (3 Bft) SW22.5 215 0 min 0 lux 0 W/m
28.01.2016 19:44 5,1 C 3,2 C 0,0 C 74 % 1024,9 hPa 0,0 l/m 12,6 km/h (3 Bft) SW22.5 215 0 min 0 lux 0 W/m
28.01.2016 19:49 4,8 C 3,2 C 0,0 C 75 % 1024,9 hPa 0,0 l/m 12,6 km/h (3 Bft) SW22.5 215 0 min 0 lux 0 W/m
28.01.2016 19:54 4,8 C 3,2 C 0,0 C 75 % 1024,9 hPa 0,0 l/m 11,6 km/h (2 Bft) S-SW45 200 0 min 0 lux 0 W/m
28.01.2016 19:59 4,8 C 3,2 C 0,0 C 75 % 1024,9 hPa 0,0 l/m 11,6 km/h (2 Bft) S-SW45 200 0 min 0 lux 0 W/m
28.01.2016 20:04 4,8 C 3,2 C 0,0 C 75 % 1024,9 hPa 0,0 l/m 11,6 km/h (2 Bft) S-SW45 200 0 min 0 lux 0 W/m
28.01.2016 20:09 4,5 C 3,2 C 0,0 C 75 % 1024,9 hPa 0,0 l/m 12,0 km/h (2 Bft) W-SW 250 0 min 200 klux 0 W/m
28.01.2016 20:14 4,5 C 3,2 C 0,0 C 75 % 1024,9 hPa 0,0 l/m 11,6 km/h (2 Bft) S-SW45 200 0 min 0 lux 0 W/m
28.01.2016 20:19 4,5 C 3,2 C 0,0 C 75 % 1024,9 hPa 0,0 l/m 11,6 km/h (2 Bft) S-SW45 200 0 min 0 lux 0 W/m
28.01.2016 20:24 4,5 C 3,2 C 0,0 C 75 % 1024,9 hPa 0,0 l/m 11,6 km/h (2 Bft) S-SW45 200 0 min 0 lux 0 W/m
28.01.2016 20:29 4,5 C 3,2 C 0,0 C 75 % 1024,9 hPa 0,0 l/m 13,3 km/h (3 Bft) S-SW22.5 205 0 min 0 lux 0 W/m
28.01.2016 20:34 4,3 C 3,2 C 0,0 C 75 % 1024,9 hPa 0,0 l/m 13,3 km/h (3 Bft) S-SW22.5 205 0 min 0 lux 0 W/m
28.01.2016 20:39 4,3 C 3,2 C 0,0 C 75 % 1024,9 hPa 0,0 l/m 13,6 km/h (3 Bft) SW22.5 220 0 min 0 lux 0 W/m
28.01.2016 20:44 4,3 C 3,2 C 0,0 C 75 % 1024,9 hPa 0,0 l/m 13,6 km/h (3 Bft) SW22.5 220 0 min 0 lux 0 W/m
28.01.2016 20:49 4,3 C 3,2 C 0,0 C 75 % 1024,9 hPa 0,0 l/m 10,0 km/h (2 Bft) S-SW22.5 205 0 min 0 lux 0 W/m
28.01.2016 20:54 4,0 C 3,2 C 0,0 C 76 % 1024,9 hPa 0,0 l/m 10,0 km/h (2 Bft) S-SW22.5 205 0 min 0 lux 0 W/m
28.01.2016 20:59 4,0 C 3,2 C 0,0 C 76 % 1024,9 hPa 0,0 l/m 8,2 km/h (2 Bft) S22.5 170 0 min 0 lux 0 W/m
28.01.2016 21:04 4,0 C 3,2 C 0,0 C 76 % 1024,9 hPa 0,0 l/m 11,3 km/h (2 Bft) S-SO22.5 155 0 min 0 lux 0 W/m
28.01.2016 21:09 4,0 C 3,2 C 0,0 C 76 % 1024,9 hPa 0,0 l/m 11,3 km/h (2 Bft) S-SO22.5 155 0 min 0 lux 0 W/m
28.01.2016 21:14 3,3 C 3,2 C 0,0 C 78 % 1024,9 hPa 0,0 l/m 11,3 km/h (2 Bft) S-SO22.5 155 0 min 0 lux 0 W/m
28.01.2016 21:19 3,3 C 3,2 C 0,0 C 78 % 1024,9 hPa 0,0 l/m 11,3 km/h (2 Bft) S-SO22.5 155 0 min 0 lux 0 W/m
28.01.2016 21:24 3,3 C 3,2 C 0,0 C 78 % 1024,9 hPa 0,0 l/m 11,3 km/h (2 Bft) S-SO22.5 155 0 min 0 lux 0 W/m
28.01.2016 21:29 3,3 C 3,2 C 0,0 C 78 % 1024,9 hPa 0,0 l/m 13,6 km/h (3 Bft) S22.5 175 0 min 200 klux 0 W/m
28.01.2016 21:34 3,3 C 3,2 C 0,0 C 78 % 1024,9 hPa 0,0 l/m 13,6 km/h (3 Bft) S22.5 175 0 min 0 lux 0 W/m
28.01.2016 21:39 3,3 C 3,2 C 0,0 C 78 % 1024,9 hPa 0,0 l/m 11,3 km/h (2 Bft) S22.5 185 0 min 0 lux 0 W/m
28.01.2016 21:44 3,3 C 3,2 C 0,0 C 78 % 1024,9 hPa 0,0 l/m 11,3 km/h (2 Bft) S22.5 185 0 min 0 lux 0 W/m
28.01.2016 21:49 3,3 C 3,2 C 0,0 C 78 % 1024,9 hPa 0,0 l/m 11,3 km/h (2 Bft) S22.5 185 0 min 0 lux 0 W/m
28.01.2016 21:54 3,3 C 3,2 C 0,0 C 78 % 1024,9 hPa 0,0 l/m 11,3 km/h (2 Bft) S22.5 185 0 min 0 lux 0 W/m
28.01.2016 21:59 3,3 C 3,2 C 0,0 C 78 % 1024,9 hPa 0,0 l/m 11,3 km/h (2 Bft) S22.5 185 0 min 0 lux 0 W/m
28.01.2016 22:04 3,3 C 3,2 C 0,0 C 78 % 1024,9 hPa 0,0 l/m 11,3 km/h (2 Bft) S22.5 185 0 min 0 lux 0 W/m
28.01.2016 22:09 3,3 C 3,2 C 0,0 C 78 % 1024,9 hPa 0,0 l/m 11,3 km/h (2 Bft) S22.5 185 0 min 0 lux 0 W/m
28.01.2016 22:14 3,3 C 3,2 C 0,0 C 78 % 1024,9 hPa 0,0 l/m 11,3 km/h (2 Bft) S22.5 185 0 min 0 lux 0 W/m
28.01.2016 22:19 3,3 C 3,2 C 0,0 C 78 % 1024,9 hPa 0,0 l/m 11,3 km/h (2 Bft) S22.5 185 0 min 0 lux 0 W/m
28.01.2016 22:24 3,3 C 3,2 C 0,0 C 78 % 1024,9 hPa 0,0 l/m 11,3 km/h (2 Bft) S22.5 185 0 min 0 lux 0 W/m
28.01.2016 22:29 3,3 C 3,2 C 0,0 C 78 % 1024,9 hPa 0,0 l/m 11,3 km/h (2 Bft) S22.5 185 0 min 0 lux 0 W/m
28.01.2016 22:34 3,3 C 3,2 C 0,0 C 78 % 1024,9 hPa 0,0 l/m 13,7 km/h (3 Bft) S-SW22.5 205 0 min 0 lux 0 W/m
28.01.2016 22:39 3,3 C 3,2 C 0,0 C 78 % 1024,9 hPa 0,0 l/m 13,7 km/h (3 Bft) S-SW22.5 205 0 min 0 lux 0 W/m
28.01.2016 22:44 3,3 C 3,2 C 0,0 C 78 % 1024,9 hPa 0,0 l/m 13,7 km/h (3 Bft) S-SW22.5 205 0 min 0 lux 0 W/m
28.01.2016 22:49 3,3 C 3,2 C 0,0 C 78 % 1024,9 hPa 0,0 l/m 13,7 km/h (3 Bft) S-SW22.5 205 0 min 0 lux 0 W/m
28.01.2016 22:54 3,3 C 3,2 C 0,0 C 78 % 1024,9 hPa 0,0 l/m 13,7 km/h (3 Bft) S-SW22.5 205 0 min 0 lux 0 W/m
28.01.2016 22:59 3,3 C 3,2 C 0,0 C 78 % 1024,9 hPa 0,0 l/m 13,7 km/h (3 Bft) S-SW22.5 205 0 min 0 lux 0 W/m
28.01.2016 23:04 3,3 C 3,2 C 0,0 C 78 % 1024,9 hPa 0,0 l/m 13,7 km/h (3 Bft) S-SW22.5 205 0 min 0 lux 0 W/m
28.01.2016 23:09 3,3 C 3,2 C 0,0 C 78 % 1024,9 hPa 0,0 l/m 16,6 km/h (3 Bft) S-SW22.5 205 0 min 0 lux 0 W/m
28.01.2016 23:14 3,3 C 3,2 C 0,0 C 78 % 1024,9 hPa 0,0 l/m 16,6 km/h (3 Bft) S-SW22.5 205 0 min 0 lux 0 W/m
28.01.2016 23:19 3,3 C 3,2 C 0,0 C 78 % 1024,9 hPa 0,0 l/m 12,0 km/h (2 Bft) S22.5 190 0 min 0 lux 0 W/m
28.01.2016 23:24 3,3 C 3,2 C 0,0 C 78 % 1024,9 hPa 0,0 l/m 12,0 km/h (2 Bft) S22.5 190 0 min 0 lux 0 W/m
28.01.2016 23:29 3,3 C 3,2 C 0,0 C 78 % 1024,9 hPa 0,0 l/m 12,0 km/h (2 Bft) S22.5 190 0 min 0 lux 0 W/m
28.01.2016 23:34 3,3 C 3,2 C 0,0 C 78 % 1024,9 hPa 0,0 l/m 12,0 km/h (2 Bft) S22.5 190 0 min 0 lux 0 W/m
28.01.2016 23:39 3,6 C 3,2 C 0,0 C 80 % 1024,9 hPa 0,0 l/m 12,0 km/h (2 Bft) S22.5 190 0 min 0 lux 0 W/m
28.01.2016 23:44 3,6 C 3,2 C 0,0 C 80 % 1024,9 hPa 0,0 l/m 12,0 km/h (2 Bft) S22.5 190 0 min 0 lux 0 W/m
28.01.2016 23:49 3,6 C 3,2 C 0,0 C 80 % 1024,9 hPa 0,0 l/m 12,0 km/h (2 Bft) S22.5 190 0 min 0 lux 0 W/m
28.01.2016 23:54 3,4 C 3,2 C 0,0 C 80 % 1024,9 hPa 0,0 l/m 12,0 km/h (2 Bft) S22.5 190 0 min 0 lux 0 W/m
28.01.2016 23:59 3,4 C 3,2 C 0,0 C 80 % 1024,9 hPa 0,0 l/m 12,0 km/h (2 Bft) S22.5 190 0 min 0 lux 0 W/m
_ Min-Zeit 14:59 08:44 00:04 14:59 00:19 - 16:59 - - - - -
Minimum _ 0,0 C 2,6 C 0,0 C 0 % 1010,8 hPa - 8,2 km/h (2 Bft) - - - - -
_ Max-Zeit 00:19 13:19 00:09 02:49 21:14 00:14 06:49 - - 12:29 00:09 10:49
Maximum _ 9,8 C 17,9 C 3,5 C 98 % 1024,9 hPa 0,4 l/m 60,0 km/h
SO (7 Bft)
- - 6 min 200 klux 1368 W/m
Durchschnitt _ 6,8 C 7,3 C 0,1 C 77 % 1020,7 hPa #2,2 l/m 12,9 km/h (3 Bft) S-SO - #7:25 h 13,4 klux 196 W/m